Find OneWeb SL0269

NORAD ID: 48987 Int'l Des: 2021-060 Owner: ONEWEBN Country: UK Constellation: oneweb operational
LEOCIRCULARPOLARONEWEB_TYPE

实时位置

正在加载3D地球...

关于 OneWeb SL0269

正在加载描述...

即将过境

Passes for default location (London). Set your location on the main map for personalized predictions.

高度历史

Loading altitude history...

两行轨道根数

1 48987U 21060W 26132.97950741 -.00000000 00000-0 -33954-4 0 9991
2 48987 87.9090 235.7778 0002163 104.3972 255.7399 13.16595737234992
Epoch: May 12, 2026 • Age: 9 hours

当前状态

高度 1208.6 km
速度 7.25 km/s
星下点 -26.23°S, 123.87°W
发射日期 Jul 1, 2021
运行时间 4.8 years
类型 internet

技术详情

分类 Payload
质量 148.00 kg
干质量 140.00 kg
总质量 148.00 kg
长度 1.30 m
直径 1.00 m
跨度 5.00 m
形状 Trapezoid+2 pan
制造商 ONEWUS
平台类型 ARROW
阶段状态 In Orbit
所有者/国家 ONEWEBN/UK

Most Searched